Date String (YYYY-MM-DD hh:mm:ss) UTC,Instrument flags,absolute air pressure of the measurement (hPa),sample flow rate (lpm),inlet stack bypass flow (lpm),air temperature of the measurement (°C),ambient temperature measured by the external sensor (°C),aerosol sample conditioner tube jacket temperature (°C),OPC LED temperature (°C),internal box temperature (°C),relative humidity of the measurement (%),span deviation,mass concentration of particles derived from Lorenz-Mie calculation of OPC scattering (μg/m³),mass concentration of particles derived from Lorenz-Mie calculation of OPC scattering (μg/m³),mass concentration of particles derived from Lorenz-Mie calculation of OPC scattering (μg/m³)
DateTimeUTC,F1_M11,P_M11,Q1_M11,Q2_M11,T1_M11,T2_M11,T3_M11,T4_M11,T5_M11,U1_M11,ZSPAN_M11,X2_M11,X0_M11,X1_M11
2023-07-02 20:00:00,SystemResetWarning,0832.2,5.00,000.00,028.7,024.7,000.0,036.9,030.0,25.0,-001.5,0004.84,0009.56,0004.49
2023-07-02 20:01:00,SystemResetWarning,0832.2,5.00,000.00,028.6,025.1,000.0,037.0,029.9,29.4,-000.8,0004.87,0009.60,0004.49
2023-07-02 20:02:00,SystemResetWarning,0832.2,5.00,000.00,028.6,025.6,000.0,037.0,030.0,27.4,-000.3,0004.87,0009.22,0004.50
2023-07-02 20:03:00,SystemResetWarning,0832.2,5.00,000.00,028.6,026.0,000.0,037.0,030.1,27.1,-000.8,0004.86,0009.48,0004.48
2023-07-02 20:04:00,SystemResetWarning,0832.2,4.98,000.00,028.6,026.5,000.0,037.0,030.2,29.2,-000.3,0004.83,0009.69,0004.47
2023-07-02 20:05:00,SystemResetWarning,0832.2,5.00,000.00,028.7,026.8,000.0,037.1,030.3,28.7,0000.0,0004.83,0009.61,0004.46
2023-07-02 20:06:00,SystemResetWarning,0832.2,5.01,000.00,028.7,027.1,000.0,037.1,030.4,27.6,0000.0,0004.83,0008.99,0004.46
2023-07-02 20:07:00,SystemResetWarning,0832.2,5.00,000.00,028.7,027.4,000.0,037.1,030.5,27.2,0000.0,0004.80,0008.76,0004.45
2023-07-02 20:08:00,SystemResetWarning,0832.2,5.00,000.00,028.8,027.6,000.0,037.1,030.6,27.3,-000.2,0004.77,0008.24,0004.44
2023-07-02 20:09:00,SystemResetWarning,0832.2,4.98,000.00,028.8,026.8,000.0,037.1,030.5,26.3,0000.0,0004.76,0008.62,0004.43
2023-07-02 20:10:00,SystemResetWarning,0832.1,5.00,000.00,028.8,025.1,000.0,037.0,030.1,26.6,0000.0,0004.78,0008.97,0004.44
2023-07-02 20:11:00,SystemResetWarning,0832.1,5.00,000.00,028.7,024.5,000.0,036.9,030.0,28.4,-000.2,0004.78,0009.04,0004.44
2023-07-02 20:12:00,SystemResetWarning,0832.1,5.01,000.00,028.6,024.8,000.0,036.9,029.8,26.9,-000.5,0004.78,0009.04,0004.43
2023-07-02 20:13:00,SystemResetWarning,0832.1,5.01,000.00,028.5,025.2,000.0,036.9,029.9,28.9,0000.0,0004.76,0008.98,0004.42
2023-07-02 20:14:00,SystemResetWarning,0832.1,4.98,000.00,028.5,025.7,000.0,037.0,030.0,29.3,-001.1,0004.77,0008.70,0004.44
2023-07-02 20:15:00,SystemResetWarning,0832.1,4.99,000.00,028.5,026.1,000.0,037.0,030.1,31.3,-001.7,0004.79,0009.43,0004.44
2023-07-02 20:16:00,SystemResetWarning,0832.0,5.01,000.00,028.6,026.5,000.0,037.0,030.2,30.8,-001.1,0004.78,0010.02,0004.44
2023-07-02 20:17:00,SystemResetWarning,0832.0,5.00,000.00,028.6,026.9,000.0,037.0,030.3,29.7,-001.8,0004.78,0010.60,0004.44
2023-07-02 20:18:00,SystemResetWarning,0832.0,5.00,000.00,028.7,027.2,000.0,037.0,030.4,30.4,-002.6,0004.79,0010.72,0004.45
2023-07-02 20:19:00,SystemResetWarning,0832.0,5.00,000.00,028.7,027.4,000.0,037.1,030.5,31.1,-002.5,0004.79,0010.71,0004.47
2023-07-02 20:20:00,SystemResetWarning,0832.0,5.01,000.00,028.8,027.6,000.0,037.1,030.5,28.7,-002.6,0004.80,0010.33,0004.48
2023-07-02 20:21:00,SystemResetWarning,0832.0,4.99,000.00,028.8,027.3,000.0,037.1,030.6,29.0,-002.2,0004.80,0010.33,0004.49
2023-07-02 20:22:00,SystemResetWarning,0832.0,4.99,000.00,028.8,025.6,000.0,037.0,030.3,30.8,-001.5,0004.82,0010.53,0004.51
2023-07-02 20:23:00,SystemResetWarning,0832.0,5.01,000.00,028.7,024.6,000.0,036.9,030.1,28.8,-000.6,0004.83,0010.80,0004.53
2023-07-02 20:24:00,SystemResetWarning,0831.9,5.01,000.00,028.6,024.8,000.0,036.9,029.9,28.1,-000.6,0004.87,0010.91,0004.54
2023-07-02 20:25:00,SystemResetWarning,0831.9,5.00,000.00,028.5,025.1,000.0,036.9,029.9,28.3,-000.7,0004.93,0011.39,0004.56
2023-07-02 20:26:00,SystemResetWarning,0831.9,5.00,000.00,028.5,025.6,000.0,037.0,030.0,29.8,-000.3,0004.94,0010.64,0004.58
2023-07-02 20:27:00,SystemResetWarning,0831.9,5.00,000.00,028.5,026.1,000.0,037.0,030.1,28.9,-000.7,0004.97,0010.02,0004.59
2023-07-02 20:28:00,SystemResetWarning,0831.9,4.99,000.00,028.6,026.5,000.0,037.0,030.2,28.4,-000.7,0005.00,0009.50,0004.60
2023-07-02 20:29:00,SystemResetWarning,0831.9,4.99,000.00,028.6,026.8,000.0,037.0,030.3,28.7,-000.6,0005.02,0009.47,0004.62
2023-07-02 20:30:00,SystemResetWarning,0831.9,5.00,000.00,028.7,027.1,000.0,037.0,030.4,27.3,-000.3,0005.06,0010.02,0004.64
2023-07-02 20:31:00,SystemResetWarning,0831.8,5.00,000.00,028.7,027.4,000.0,037.1,030.5,26.8,0000.7,0005.09,0010.02,0004.65
2023-07-02 20:32:00,SystemResetWarning,0831.8,5.02,000.00,028.8,027.6,000.0,037.1,030.5,29.7,0001.0,0005.09,0010.07,0004.65
2023-07-02 20:33:00,SystemResetWarning,0832.0,4.99,000.00,028.8,026.8,000.0,037.0,030.5,28.4,0001.1,0005.10,0009.67,0004.65
2023-07-02 20:34:00,SystemResetWarning,0832.2,4.99,000.00,028.7,025.1,000.0,037.0,030.1,28.6,0000.3,0005.08,0009.52,0004.64
2023-07-02 20:35:00,SystemResetWarning,0831.7,5.02,000.00,028.6,024.6,000.0,036.9,030.0,27.8,0000.1,0005.07,0009.47,0004.64
2023-07-02 20:36:00,SystemResetWarning,0831.8,5.00,000.00,028.6,024.9,000.0,036.9,029.9,27.3,-000.0,0005.04,0009.25,0004.64
2023-07-02 20:37:00,SystemResetWarning,0831.7,5.01,000.00,028.5,025.4,000.0,036.9,029.9,28.3,0000.0,0005.04,0009.31,0004.63
2023-07-02 20:38:00,SystemResetWarning,0831.7,5.00,000.00,028.5,025.8,000.0,036.9,030.0,29.8,0000.0,0005.04,0009.24,0004.65
2023-07-02 20:39:00,SystemResetWarning,0831.7,4.99,000.00,028.6,026.3,000.0,037.0,030.1,31.1,0000.0,0005.03,0009.20,0004.65
2023-07-02 20:40:00,SystemResetWarning,0831.7,5.00,000.00,028.6,026.7,000.0,037.0,030.2,31.2,0000.0,0005.01,0009.33,0004.65
2023-07-02 20:41:00,SystemResetWarning,0831.7,5.00,000.00,028.6,027.0,000.0,037.0,030.3,31.2,0000.0,0005.03,0009.41,0004.65
2023-07-02 20:42:00,SystemResetWarning,0831.7,5.00,000.00,028.7,027.3,000.0,037.0,030.4,30.2,0000.0,0005.05,0009.50,0004.67
2023-07-02 20:43:00,SystemResetWarning,0831.7,4.99,000.00,028.7,027.5,000.0,037.1,030.5,29.4,0000.0,0005.09,0010.40,0004.69
2023-07-02 20:44:00,SystemResetWarning,0831.7,4.99,000.00,028.8,027.6,000.0,037.1,030.6,30.6,0000.0,0005.10,0010.45,0004.70
2023-07-02 20:45:00,SystemResetWarning,0831.6,5.00,000.00,028.8,026.4,000.0,037.0,030.4,29.6,0000.0,0005.14,0010.50,0004.72
2023-07-02 20:46:00,SystemResetWarning,0831.6,5.00,000.00,028.7,025.0,000.0,036.9,030.2,27.6,0000.0,0005.16,0010.53,0004.74
2023-07-02 20:47:00,SystemResetWarning,0831.6,5.01,000.00,028.7,024.8,000.0,036.9,030.0,25.4,0000.0,0005.18,0010.49,0004.74
2023-07-02 20:48:00,SystemResetWarning,0831.6,5.00,000.00,028.6,025.1,000.0,036.9,029.9,26.9,0000.0,0005.21,0010.34,0004.74
2023-07-02 20:49:00,SystemResetWarning,0831.6,5.00,000.00,028.6,025.6,000.0,036.9,030.0,27.8,0000.0,0005.26,0010.65,0004.74
2023-07-02 20:50:00,SystemResetWarning,0831.7,4.99,000.00,028.6,026.0,000.0,037.0,030.1,29.7,0000.0,0005.28,0011.16,0004.74
2023-07-02 20:51:00,SystemResetWarning,0831.7,4.99,000.00,028.6,026.5,000.0,037.0,030.2,27.8,0000.0,0005.31,0011.28,0004.75
2023-07-02 20:52:00,SystemResetWarning,0831.7,5.00,000.00,028.6,026.8,000.0,037.0,030.3,28.6,0000.0,0005.29,0010.31,0004.75
2023-07-02 20:53:00,SystemResetWarning,0831.7,5.02,000.00,028.7,027.2,000.0,037.0,030.4,28.9,0000.0,0005.29,0010.24,0004.74
2023-07-02 20:54:00,SystemResetWarning,0831.7,5.00,000.00,028.7,027.4,000.0,037.1,030.5,31.8,-000.2,0005.28,0009.66,0004.73
2023-07-02 20:55:00,SystemResetWarning,0831.7,5.00,000.00,028.8,027.7,000.0,037.1,030.6,30.0,-000.2,0005.28,0009.27,0004.71
2023-07-02 20:56:00,SystemResetWarning,0831.7,4.99,000.00,028.8,026.8,000.0,037.0,030.5,27.9,0000.0,0005.29,0009.33,0004.70
2023-07-02 20:57:00,SystemResetWarning,0831.7,5.01,000.00,028.8,025.2,000.0,036.9,030.2,27.6,-000.4,0005.24,0009.26,0004.68
2023-07-02 20:58:00,SystemResetWarning,0831.6,5.01,000.00,028.7,024.8,000.0,036.9,030.0,27.2,-000.2,0005.24,0009.58,0004.67
2023-07-02 20:59:00,SystemResetWarning,0831.6,5.01,000.00,028.6,025.1,000.0,036.9,029.9,27.2,0000.3,0005.21,0009.55,0004.65
